| time (UTC) | temp F | wind direction | speed MPH | gust MPH | rain 1hr in | rain 24hr in | rain mn in | humidity % | barometer mb |
| 20260906130746 | 67 | 122 | 3.0 | 12.0 | 0.00 | 0.00 | 0.00 | 89 | 966.0 |
| 20260906130245 | 67 | 101 | 3.0 | 12.0 | 0.00 | 0.00 | 0.00 | 88 | 965.2 |
| 20260906125745 | 67 | 101 | 4.0 | 12.0 | 0.00 | 0.00 | 0.00 | 88 | 944.3 |
| 20260906125244 | 66 | 100 | 3.0 | 12.0 | 0.00 | 0.00 | 0.00 | 89 | 957.5 |
| 20260906124744 | 66 | 77 | 3.0 | 12.0 | 0.00 | 0.00 | 0.00 | 89 | 943.3 |
| 20260906123729 | 66 | 109 | 1.0 | 12.0 | 0.00 | 0.00 | 0.00 | 92 | 942.6 |
| 20260906123228 | 66 | 93 | 2.0 | 12.0 | 0.00 | 0.00 | 0.00 | 91 | 942.7 |
| 20260906122211 | 65 | 97 | 1.0 | 12.0 | 0.00 | 0.00 | 0.00 | 92 | 963.4 |
| 20260906121711 | 65 | 92 | 5.0 | 12.0 | 0.00 | 0.00 | 0.00 | 92 | 944.3 |
| 20260906121210 | 65 | 86 | 2.0 | 12.0 | 0.00 | 0.00 | 0.00 | 93 | 938.9 |
| 20260906120709 | 65 | 96 | 2.0 | 12.0 | 0.00 | 0.00 | 0.00 | 93 | 961.6 |
| 20260906120208 | 64 | 87 | 1.0 | 12.0 | 0.00 | 0.00 | 0.00 | 94 | 968.9 |
| 20260906115707 | 64 | 69 | 2.0 | 12.0 | 0.00 | 0.00 | 0.00 | 94 | 966.9 |
| 20260906115207 | 64 | 66 | 1.0 | 12.0 | 0.00 | 0.00 | 0.00 | 94 | 937.3 |
| 20260906114707 | 64 | 79 | 2.0 | 12.0 | 0.00 | 0.00 | 0.00 | 94 | 963.8 |
| 20260906113651 | 64 | 76 | 3.0 | 12.0 | 0.00 | 0.00 | 0.00 | 94 | 947.9 |
| 20260906113150 | 64 | 77 | 2.0 | 12.0 | 0.00 | 0.00 | 0.00 | 94 | 952.6 |
| 20260906112650 | 64 | 64 | 2.0 | 12.0 | 0.00 | 0.00 | 0.00 | 94 | 949.8 |
| 20260906112149 | 64 | 80 | 0.0 | 12.0 | 0.00 | 0.00 | 0.00 | 94 | 948.4 |
| 20260906111648 | 64 | 80 | 1.0 | 12.0 | 0.00 | 0.00 | 0.00 | 94 | 952.1 |
| 20260906111148 | 64 | 77 | 2.0 | 12.0 | 0.00 | 0.00 | 0.00 | 94 | 952.1 |
| 20260906110648 | 65 | 75 | 1.0 | 12.0 | 0.00 | 0.00 | 0.00 | 94 | 945.0 |
| 20260906110148 | 65 | 88 | 3.0 | 12.0 | 0.00 | 0.00 | 0.00 | 93 | 912.6 |
| 20260906105648 | 65 | 74 | 1.0 | 12.0 | 0.00 | 0.00 | 0.00 | 93 | 923.6 |
| 20260906105148 | 65 | 101 | 2.0 | 12.0 | 0.00 | 0.00 | 0.00 | 93 | 921.7 |
| 20260906104648 | 65 | 82 | 3.0 | 12.0 | 0.00 | 0.00 | 0.00 | 94 | 923.1 |
| 20260906104148 | 65 | 85 | 3.0 | 12.0 | 0.00 | 0.00 | 0.00 | 94 | 916.7 |
| 20260906103647 | 65 | 102 | 4.0 | 12.0 | 0.00 | 0.00 | 0.00 | 94 | 930.3 |
| 20260906103146 | 65 | 82 | 3.0 | 12.0 | 0.00 | 0.00 | 0.00 | 93 | 932.4 |
| 20260906102645 | 66 | 102 | 2.0 | 12.0 | 0.00 | 0.00 | 0.00 | 93 | 934.2 |
| 20260906102145 | 66 | 79 | 3.0 | 12.0 | 0.00 | 0.00 | 0.00 | 94 | 939.4 |
| 20260906101644 | 66 | 73 | 2.0 | 12.0 | 0.00 | 0.00 | 0.00 | 94 | 957.4 |
| 20260906101143 | 66 | 89 | 2.0 | 12.0 | 0.00 | 0.00 | 0.00 | 94 | 922.8 |
| 20260906100643 | 66 | 100 | 4.0 | 12.0 | 0.00 | 0.00 | 0.00 | 93 | 912.8 |
| 20260906100142 | 66 | 68 | 1.0 | 12.0 | 0.00 | 0.00 | 0.00 | 94 | 920.1 |
| 20260906095642 | 66 | 83 | 2.0 | 12.0 | 0.00 | 0.00 | 0.00 | 94 | 941.0 |
| 20260906095142 | 66 | 101 | 2.0 | 12.0 | 0.00 | 0.00 | 0.00 | 94 | 915.8 |
| 20260906094642 | 66 | 108 | 3.0 | 12.0 | 0.00 | 0.00 | 0.00 | 94 | 921.3 |
| 20260906094142 | 66 | 81 | 3.0 | 12.0 | 0.00 | 0.00 | 0.00 | 94 | 912.5 |
| 20260906093642 | 66 | 76 | 3.0 | 12.0 | 0.00 | 0.00 | 0.00 | 94 | 900.8 |
| 20260906093142 | 66 | 96 | 3.0 | 12.0 | 0.00 | 0.00 | 0.00 | 94 | 912.9 |
| 20260906092642 | 66 | 98 | 2.0 | 12.0 | 0.00 | 0.00 | 0.00 | 94 | 913.7 |
| 20260906092142 | 67 | 115 | 4.0 | 12.0 | 0.00 | 0.00 | 0.00 | 94 | 919.5 |
| 20260906091642 | 67 | 125 | 3.0 | 12.0 | 0.00 | 0.00 | 0.00 | 94 | 928.8 |
| 20260906091142 | 67 | 120 | 3.0 | 12.0 | 0.00 | 0.00 | 0.00 | 94 | 962.5 |
| 20260906090642 | 67 | 108 | 2.0 | 12.0 | 0.00 | 0.00 | 0.00 | 94 | 983.4 |
| 20260906090142 | 67 | 86 | 2.0 | 12.0 | 0.00 | 0.00 | 0.00 | 94 | 983.0 |
| 20260906085641 | 67 | 103 | 1.0 | 12.0 | 0.00 | 0.00 | 0.00 | 94 | 984.9 |
| 20260906085141 | 68 | 100 | 1.0 | 12.0 | 0.00 | 0.00 | 0.00 | 94 | 986.1 |
| 20260906084640 | 68 | 87 | 1.0 | 12.0 | 0.00 | 0.00 | 0.00 | 94 | 986.3 |
| 20260906084141 | 68 | 98 | 2.0 | 12.0 | 0.00 | 0.00 | 0.00 | 94 | 987.1 |
| 20260906083641 | 68 | 78 | 1.0 | 12.0 | 0.00 | 0.00 | 0.00 | 95 | 986.9 |
| 20260906083141 | 68 | 74 | 0.0 | 12.0 | 0.00 | 0.00 | 0.00 | 95 | 985.6 |
| 20260906082640 | 68 | 81 | 2.0 | 12.0 | 0.00 | 0.00 | 0.00 | 95 | 986.0 |
| 20260906082139 | 68 | 87 | 2.0 | 12.0 | 0.00 | 0.00 | 0.00 | 95 | 982.6 |
| 20260906081639 | 68 | 83 | 2.0 | 12.0 | 0.00 | 0.00 | 0.00 | 96 | 982.7 |
| 20260906081140 | 68 | 84 | 2.0 | 12.0 | 0.00 | 0.00 | 0.00 | 96 | 983.7 |
| 20260906080125 | 69 | 98 | 0.0 | 12.0 | 0.00 | 0.00 | 0.00 | 97 | 981.8 |
| 20260906075625 | 69 | 40 | 2.0 | 12.0 | 0.00 | 0.00 | 0.00 | 97 | 984.3 |
| 20260906075123 | 69 | 88 | 2.0 | 12.0 | 0.00 | 0.00 | 0.00 | 97 | 985.4 |
| 20260906074623 | 69 | 95 | 2.0 | 12.0 | 0.00 | 0.00 | 0.00 | 97 | 981.3 |
| 20260906074123 | 70 | 75 | 1.0 | 12.0 | 0.00 | 0.00 | 0.00 | 97 | 980.9 |
| 20260906073622 | 70 | 83 | 2.0 | 12.0 | 0.00 | 0.00 | 0.00 | 98 | 980.0 |
| 20260906073122 | 70 | 98 | 1.0 | 12.0 | 0.00 | 0.00 | 0.00 | 97 | 981.3 |
| 20260906072622 | 70 | 84 | 2.0 | 12.0 | 0.00 | 0.00 | 0.00 | 97 | 983.7 |
| 20260906072122 | 70 | 90 | 2.0 | 12.0 | 0.00 | 0.00 | 0.00 | 97 | 984.0 |
| 20260906071621 | 70 | 103 | 2.0 | 12.0 | 0.00 | 0.00 | 0.00 | 97 | 983.6 |
| 20260906071121 | 70 | 105 | 3.0 | 12.0 | 0.00 | 0.00 | 0.00 | 97 | 984.1 |
| 20260906070621 | 70 | 102 | 2.0 | 12.0 | 0.00 | 0.00 | 0.00 | 98 | 984.9 |
| 20260906070121 | 70 | 99 | 1.0 | 12.0 | 0.00 | 0.00 | 0.00 | 98 | 982.2 |
| 20260906065621 | 70 | 116 | 1.0 | 12.0 | 0.00 | 0.00 | 0.00 | 98 | 981.3 |
| 20260906065119 | 70 | 94 | 2.0 | 12.0 | 0.00 | 0.00 | 0.00 | 98 | 987.4 |
| 20260906064619 | 70 | 94 | 2.0 | 12.0 | 0.00 | 0.00 | 0.00 | 98 | 988.8 |
| 20260906064120 | 70 | 83 | 1.0 | 12.0 | 0.00 | 0.00 | 0.00 | 98 | 989.5 |
| 20260906063619 | 71 | 81 | 1.0 | 12.0 | 0.00 | 0.00 | 0.00 | 98 | 989.9 |
| 20260906063118 | 71 | 111 | 2.0 | 12.0 | 0.00 | 0.00 | 0.00 | 98 | 990.0 |
| 20260906062617 | 71 | 96 | 2.0 | 12.0 | 0.00 | 0.00 | 0.00 | 98 | 990.2 |
| 20260906062117 | 71 | 90 | 0.0 | 12.0 | 0.00 | 0.00 | 0.00 | 98 | 990.3 |
| 20260906061103 | 70 | 91 | 3.0 | 12.0 | 0.00 | 0.00 | 0.00 | 98 | 990.5 |
| 20260906055532 | 71 | 97 | 2.0 | 12.0 | 0.00 | 0.00 | 0.00 | 99 | 991.0 |
| 20260906055030 | 71 | 92 | 1.0 | 12.0 | 0.00 | 0.00 | 0.00 | 99 | 990.9 |
| 20260906054530 | 71 | 94 | 0.0 | 12.0 | 0.00 | 0.00 | 0.00 | 99 | 991.0 |
| 20260906054029 | 71 | 87 | 2.0 | 12.0 | 0.00 | 0.00 | 0.00 | 99 | 989.8 |
| 20260906053529 | 71 | 64 | 1.0 | 12.0 | 0.00 | 0.00 | 0.00 | 99 | 981.9 |
| 20260906052514 | 71 | 60 | 2.0 | 12.0 | 0.00 | 0.00 | 0.00 | 99 | 977.9 |
| 20260906051457 | 71 | 90 | 1.0 | 12.0 | 0.00 | 0.00 | 0.00 | 99 | 985.0 |
| 20260906050956 | 71 | 93 | 0.0 | 12.0 | 0.00 | 0.00 | 0.00 | 99 | 987.8 |
| 20260906050455 | 71 | 92 | 0.0 | 12.0 | 0.00 | 0.00 | 0.00 | 99 | 988.9 |
| 20260906045955 | 71 | 93 | 1.0 | 12.0 | 0.00 | 0.00 | 0.00 | 99 | 972.4 |
| 20260906045454 | 71 | 92 | 0.0 | 12.0 | 0.00 | 0.00 | 0.00 | 99 | 969.8 |
| 20260906044438 | 72 | 109 | 0.0 | 12.0 | 0.00 | 0.00 | 0.00 | 99 | 975.1 |
| 20260906043937 | 72 | 108 | 0.0 | 12.0 | 0.00 | 0.00 | 0.00 | 99 | 973.2 |
| 20260906043436 | 72 | 116 | 2.0 | 12.0 | 0.00 | 0.00 | 0.00 | 99 | 970.5 |
| 20260906042420 | 72 | 120 | 0.0 | 12.0 | 0.00 | 0.00 | 0.00 | 98 | 986.1 |
| 20260906041919 | 72 | 128 | 1.0 | 12.0 | 0.00 | 0.00 | 0.00 | 98 | 987.7 |
| 20260906041419 | 72 | 138 | 0.0 | 12.0 | 0.00 | 0.00 | 0.00 | 98 | 982.0 |
| 20260906040919 | 72 | 137 | 1.0 | 12.0 | 0.00 | 0.00 | 0.00 | 98 | 982.9 |
| 20260906040418 | 72 | 137 | 2.0 | 12.0 | 0.00 | 0.00 | 0.00 | 98 | 984.2 |
| 20260906035917 | 72 | 139 | 2.0 | 12.0 | 0.00 | 0.00 | 0.27 | 98 | 972.9 |
| 20260906035416 | 72 | 137 | 2.0 | 12.0 | 0.00 | 0.00 | 0.27 | 97 | 981.0 |
| 20260906034915 | 72 | 139 | 2.0 | 12.0 | 0.00 | 0.00 | 0.27 | 97 | 977.0 |
| 20260906034415 | 73 | 133 | 2.0 | 12.0 | 0.00 | 0.00 | 0.27 | 97 | 971.8 |
| 20260906033358 | 73 | 136 | 3.0 | 12.0 | 0.00 | 0.00 | 0.27 | 97 | 972.1 |
| 20260906032858 | 73 | 151 | 2.0 | 12.0 | 0.00 | 0.00 | 0.27 | 97 | 972.1 |
| 20260906032358 | 73 | 154 | 2.0 | 12.0 | 0.00 | 0.00 | 0.27 | 96 | 978.7 |
| 20260906031857 | 73 | 158 | 3.0 | 12.0 | 0.00 | 0.00 | 0.27 | 96 | 974.0 |
| 20260906031357 | 73 | 159 | 3.0 | 12.0 | 0.00 | 0.00 | 0.27 | 96 | 979.5 |
| 20260906030856 | 73 | 129 | 1.0 | 12.0 | 0.00 | 0.00 | 0.27 | 96 | 981.3 |
| 20260906030355 | 73 | 128 | 2.0 | 12.0 | 0.00 | 0.00 | 0.27 | 96 | 982.2 |
| 20260906025338 | 73 | 134 | 3.0 | 12.0 | 0.00 | 0.00 | 0.27 | 95 | 989.0 |
| 20260906024838 | 73 | 137 | 4.0 | 12.0 | 0.00 | 0.00 | 0.27 | 95 | 978.2 |
| 20260906023823 | 74 | 137 | 5.0 | 12.0 | 0.00 | 0.00 | 0.27 | 95 | 977.4 |
| 20260906023322 | 74 | 137 | 4.0 | 12.0 | 0.00 | 0.00 | 0.27 | 94 | 978.0 |
| 20260906021234 | 74 | 125 | 4.0 | 12.0 | 0.00 | 0.00 | 0.27 | 94 | 982.4 |
| 20260906020734 | 74 | 121 | 4.0 | 12.0 | 0.00 | 0.00 | 0.27 | 93 | 977.6 |
| 20260906015718 | 74 | 118 | 3.0 | 12.0 | 0.00 | 0.00 | 0.27 | 93 | 981.6 |
| 20260906014702 | 75 | 125 | 3.0 | 12.0 | 0.00 | 0.00 | 0.27 | 92 | 983.6 |
| 20260906014201 | 75 | 115 | 3.0 | 12.0 | 0.00 | 0.00 | 0.27 | 92 | 985.6 |
| 20260906013700 | 75 | 112 | 3.0 | 12.0 | 0.00 | 0.00 | 0.27 | 91 | 986.9 |
| 20260906013200 | 75 | 119 | 3.0 | 12.0 | 0.00 | 0.00 | 0.27 | 91 | 982.2 |
| 20260906012659 | 75 | 125 | 4.0 | 12.0 | 0.00 | 0.00 | 0.27 | 91 | 975.5 |
| 20260906011129 | 76 | 118 | 3.0 | 12.0 | 0.00 | 0.00 | 0.27 | 89 | 982.7 |
| 20260906010628 | 76 | 101 | 3.0 | 12.0 | 0.00 | 0.00 | 0.27 | 89 | 945.0 |
| 20260906010128 | 76 | 86 | 4.0 | 12.0 | 0.00 | 0.00 | 0.27 | 88 | 945.3 |
| 20260906005628 | 77 | 87 | 2.0 | 12.0 | 0.00 | 0.00 | 0.27 | 88 | 973.6 |
| 20260906005128 | 77 | 38 | 0.0 | 12.0 | 0.00 | 0.00 | 0.27 | 88 | 968.2 |
| 20260906004628 | 77 | 34 | 2.0 | 12.0 | 0.00 | 0.00 | 0.27 | 87 | 986.0 |
| 20260906004128 | 78 | 30 | 2.0 | 12.0 | 0.00 | 0.00 | 0.27 | 86 | 992.6 |
| 20260906003627 | 78 | 25 | 2.0 | 12.0 | 0.00 | 0.00 | 0.27 | 85 | 996.1 |
| 20260906003126 | 78 | 16 | 2.0 | 12.0 | 0.00 | 0.00 | 0.27 | 85 | 998.3 |
| 20260906002625 | 78 | 14 | 2.0 | 12.0 | 0.00 | 0.00 | 0.27 | 84 | 980.8 |
| 20260906002125 | 79 | 353 | 2.0 | 12.0 | 0.00 | 0.00 | 0.27 | 84 | 981.8 |
| 20260906001625 | 79 | 321 | 2.0 | 12.0 | 0.00 | 0.00 | 0.27 | 84 | 980.8 |
| 20260906001124 | 79 | 320 | 2.0 | 12.0 | 0.00 | 0.00 | 0.27 | 83 | 967.4 |
| 20260906000107 | 79 | 319 | 1.0 | 12.0 | 0.00 | 0.00 | 0.27 | 83 | 964.4 |
| 20260905235607 | 79 | 320 | 2.0 | 12.0 | 0.00 | 0.00 | 0.27 | 82 | 961.3 |
| 20260905235106 | 79 | 319 | 2.0 | 12.0 | 0.00 | 0.00 | 0.27 | 82 | 938.3 |
| 20260905234606 | 79 | 313 | 2.0 | 12.0 | 0.00 | 0.00 | 0.27 | 83 | 979.4 |
| 20260905234106 | 80 | 321 | 2.0 | 12.0 | 0.00 | 0.00 | 0.27 | 82 | 964.9 |
| 20260905233049 | 81 | 315 | 2.0 | 12.0 | 0.00 | 0.00 | 0.27 | 79 | 961.4 |
| 20260905225932 | 83 | 341 | 1.0 | 12.0 | 0.00 | 0.00 | 0.27 | 75 | 938.9 |
| 20260905225431 | 83 | 337 | 2.0 | 12.0 | 0.00 | 0.00 | 0.27 | 74 | 888.3 |
| 20260905224930 | 83 | 339 | 1.0 | 12.0 | 0.00 | 0.00 | 0.27 | 74 | 918.7 |
| 20260905223914 | 83 | 328 | 2.0 | 12.0 | 0.00 | 0.00 | 0.27 | 73 | 935.0 |
| 20260905223414 | 83 | 323 | 2.0 | 12.0 | 0.00 | 0.00 | 0.27 | 74 | 892.5 |
| 20260905222914 | 83 | 334 | 2.0 | 12.0 | 0.00 | 0.00 | 0.27 | 73 | 913.5 |
| 20260905222414 | 83 | 331 | 2.0 | 12.0 | 0.00 | 0.00 | 0.27 | 73 | 927.4 |
| 20260905221914 | 83 | 341 | 3.0 | 12.0 | 0.00 | 0.00 | 0.27 | 72 | 924.2 |
| 20260905221413 | 84 | 339 | 3.0 | 12.0 | 0.00 | 0.00 | 0.27 | 72 | 958.9 |
| 20260905220913 | 84 | 337 | 1.0 | 12.0 | 0.00 | 0.00 | 0.27 | 73 | 940.4 |
| 20260905215857 | 84 | 320 | 3.0 | 12.0 | 0.00 | 0.00 | 0.27 | 72 | 965.6 |
| 20260905214840 | 84 | 348 | 3.0 | 12.0 | 0.00 | 0.00 | 0.27 | 71 | 950.0 |
| 20260905214340 | 84 | 338 | 1.0 | 12.0 | 0.00 | 0.00 | 0.27 | 73 | 947.4 |
| 20260905213840 | 83 | 322 | 1.0 | 12.0 | 0.00 | 0.00 | 0.27 | 72 | 946.5 |
| 20260905212825 | 83 | 309 | 2.0 | 12.0 | 0.00 | 0.00 | 0.27 | 72 | 1000.6 |
| 20260905212324 | 84 | 327 | 2.0 | 12.0 | 0.00 | 0.00 | 0.27 | 70 | 1002.6 |
| 20260905211824 | 84 | 261 | 3.0 | 12.0 | 0.00 | 0.00 | 0.27 | 71 | 1002.2 |
| 20260905210809 | 85 | 281 | 3.0 | 12.0 | 0.00 | 0.00 | 0.27 | 70 | 1002.3 |
| 20260905210308 | 86 | 296 | 1.0 | 12.0 | 0.00 | 0.00 | 0.27 | 71 | 1002.6 |
| 20260905205253 | 84 | 309 | 1.0 | 12.0 | 0.00 | 0.00 | 0.27 | 70 | 1002.2 |
| 20260905204752 | 84 | 310 | 3.0 | 12.0 | 0.00 | 0.00 | 0.27 | 70 | 1002.5 |
| 20260905204251 | 83 | 7 | 2.0 | 12.0 | 0.00 | 0.00 | 0.27 | 70 | 1002.9 |
| 20260905203751 | 83 | 294 | 2.0 | 12.0 | 0.00 | 0.00 | 0.27 | 70 | 1002.8 |
| 20260905203250 | 84 | 322 | 2.0 | 12.0 | 0.00 | 0.00 | 0.27 | 72 | 1003.8 |
| 20260905202750 | 84 | 303 | 4.0 | 12.0 | 0.00 | 0.00 | 0.27 | 70 | 1003.8 |
| 20260905201734 | 84 | 295 | 2.0 | 12.0 | 0.00 | 0.00 | 0.27 | 70 | 1004.1 |
| 20260905200718 | 84 | 265 | 2.0 | 12.0 | 0.00 | 0.00 | 0.27 | 69 | 1004.2 |
| 20260905200217 | 84 | 323 | 0.0 | 12.0 | 0.00 | 0.00 | 0.27 | 72 | 1004.6 |
| 20260905195716 | 84 | 263 | 5.0 | 12.0 | 0.00 | 0.00 | 0.27 | 71 | 1004.7 |
| 20260905194659 | 83 | 226 | 3.0 | 12.0 | 0.00 | 0.00 | 0.27 | 73 | 1004.8 |
| 20260905194159 | 83 | 254 | 3.0 | 12.0 | 0.00 | 0.00 | 0.27 | 71 | 1004.9 |
| 20260905193658 | 84 | 249 | 3.0 | 12.0 | 0.00 | 0.00 | 0.27 | 71 | 1005.3 |
| 20260905193158 | 84 | 243 | 4.0 | 12.0 | 0.00 | 0.00 | 0.27 | 71 | 1004.9 |
| 20260905192658 | 84 | 269 | 3.0 | 12.0 | 0.00 | 0.00 | 0.27 | 72 | 1005.3 |
| 20260905191641 | 83 | 278 | 1.0 | 12.0 | 0.00 | 0.00 | 0.27 | 73 | 1005.6 |
| 20260905190625 | 83 | 247 | 3.0 | 12.0 | 0.00 | 0.00 | 0.27 | 74 | 1005.8 |
| 20260905190124 | 82 | 244 | 2.0 | 12.0 | 0.00 | 0.00 | 0.27 | 74 | 1005.8 |
| 20260905185623 | 83 | 236 | 3.0 | 12.0 | 0.00 | 0.00 | 0.27 | 75 | 1007.9 |
| 20260905185123 | 83 | 240 | 2.0 | 12.0 | 0.00 | 0.00 | 0.27 | 73 | 1007.9 |
| 20260905184108 | 83 | 228 | 4.0 | 12.0 | 0.00 | 0.00 | 0.27 | 73 | 1007.9 |
| 20260905183607 | 84 | 231 | 3.0 | 12.0 | 0.00 | 0.00 | 0.27 | 73 | 1007.8 |
| 20260905183107 | 83 | 262 | 2.0 | 12.0 | 0.00 | 0.00 | 0.27 | 75 | 1008.1 |
| 20260905182607 | 83 | 263 | 2.0 | 12.0 | 0.00 | 0.00 | 0.27 | 76 | 1008.2 |
| 20260905182106 | 82 | 157 | 0.0 | 12.0 | 0.00 | 0.00 | 0.27 | 75 | 1008.6 |
| 20260905181606 | 81 | 159 | 2.0 | 12.0 | 0.00 | 0.00 | 0.27 | 75 | 1008.7 |
| 20260905181105 | 81 | 175 | 0.0 | 12.0 | 0.00 | 0.00 | 0.27 | 78 | 1008.8 |
| 20260905180604 | 81 | 243 | 1.0 | 12.0 | 0.00 | 0.00 | 0.27 | 79 | 1009.0 |
| 20260905175548 | 81 | 268 | 3.0 | 12.0 | 0.00 | 0.00 | 0.27 | 76 | 1009.2 |
| 20260905175048 | 81 | 257 | 2.0 | 12.0 | 0.00 | 0.00 | 0.27 | 79 | 1009.1 |
| 20260905174547 | 81 | 251 | 2.0 | 12.0 | 0.00 | 0.00 | 0.27 | 78 | 1009.0 |
| 20260905174046 | 82 | 239 | 2.0 | 12.0 | 0.00 | 0.00 | 0.27 | 78 | 1009.2 |
| 20260905173031 | 82 | 246 | 2.0 | 12.0 | 0.00 | 0.00 | 0.27 | 79 | 1003.5 |
| 20260905172531 | 81 | 252 | 0.0 | 12.0 | 0.00 | 0.00 | 0.27 | 79 | 1003.4 |
| 20260905172030 | 82 | 230 | 3.0 | 12.0 | 0.00 | 0.00 | 0.27 | 78 | 1003.7 |
| 20260905171529 | 82 | 230 | 1.0 | 12.0 | 0.00 | 0.00 | 0.27 | 79 | 1003.9 |
| 20260905171028 | 81 | 136 | 1.0 | 12.0 | 0.00 | 0.00 | 0.27 | 80 | 1004.1 |
| 20260905170527 | 80 | 254 | 1.0 | 12.0 | 0.00 | 0.00 | 0.27 | 84 | 1003.1 |
| 20260905170027 | 79 | 195 | 3.0 | 12.0 | 0.00 | 0.00 | 0.27 | 81 | 1002.7 |
| 20260905165526 | 79 | 154 | 0.0 | 12.0 | 0.00 | 0.00 | 0.27 | 83 | 1002.5 |
| 20260905165025 | 79 | 177 | 4.0 | 12.0 | 0.00 | 0.00 | 0.27 | 83 | 1002.4 |
| 20260905164525 | 78 | 162 | 5.0 | 12.0 | 0.00 | 0.00 | 0.27 | 84 | 1003.0 |
| 20260905164025 | 78 | 166 | 6.0 | 12.0 | 0.00 | 0.00 | 0.27 | 82 | 1004.2 |
| 20260905163525 | 78 | 148 | 4.0 | 12.0 | 0.00 | 0.00 | 0.27 | 85 | 1004.7 |
| 20260905163024 | 78 | 119 | 5.0 | 12.0 | 0.00 | 0.00 | 0.27 | 85 | 1006.8 |
| 20260905162524 | 77 | 146 | 6.0 | 12.0 | 0.00 | 0.00 | 0.27 | 85 | 1008.9 |
| 20260905161507 | 78 | 135 | 6.0 | 12.0 | 0.00 | 0.00 | 0.27 | 84 | 1010.5 |
| 20260905161007 | 78 | 222 | 2.0 | 12.0 | 0.00 | 0.00 | 0.27 | 83 | 1010.8 |
| 20260905160506 | 78 | 2 | 2.0 | 12.0 | 0.00 | 0.00 | 0.27 | 83 | 1010.6 |
| 20260905160006 | 78 | 23 | 2.0 | 12.0 | 0.00 | 0.00 | 0.27 | 83 | 1010.9 |
| 20260905155504 | 78 | 39 | 1.0 | 12.0 | 0.00 | 0.00 | 0.27 | 84 | 1010.9 |
| 20260905155004 | 78 | 108 | 3.0 | 12.0 | 0.00 | 0.00 | 0.27 | 84 | 1010.7 |
| 20260905154503 | 78 | 81 | 2.0 | 12.0 | 0.00 | 0.00 | 0.27 | 86 | 1010.6 |
| 20260905154003 | 77 | 329 | 1.0 | 12.0 | 0.00 | 0.00 | 0.27 | 88 | 1010.6 |
| 20260905152945 | 77 | 85 | 1.0 | 12.0 | 0.00 | 0.00 | 0.27 | 90 | 1006.6 |
| 20260905152445 | 76 | 24 | 0.0 | 12.0 | 0.00 | 0.00 | 0.27 | 89 | 1006.6 |
| 20260905151945 | 75 | 47 | 2.0 | 12.0 | 0.00 | 0.00 | 0.27 | 90 | 1006.7 |
| 20260905151445 | 75 | 25 | 2.0 | 12.0 | 0.00 | 0.00 | 0.27 | 90 | 1007.3 |
| 20260905150944 | 75 | 34 | 1.0 | 12.0 | 0.00 | 0.00 | 0.27 | 92 | 1007.0 |
| 20260905145927 | 74 | 31 | 0.0 | 12.0 | 0.00 | 0.00 | 0.27 | 96 | 1004.2 |
| 20260905144912 | 72 | 30 | 2.0 | 12.0 | 0.00 | 0.00 | 0.27 | 98 | 997.5 |
| 20260905144411 | 72 | 65 | 1.0 | 12.0 | 0.00 | 0.00 | 0.27 | 98 | 995.9 |
| 20260905143910 | 72 | 71 | 1.0 | 12.0 | 0.00 | 0.00 | 0.27 | 99 | 996.4 |
| 20260905142855 | 72 | 38 | 4.0 | 12.0 | 0.00 | 0.00 | 0.27 | 100 | 999.9 |
| 20260905142355 | 72 | 60 | 3.0 | 12.0 | 0.00 | 0.00 | 0.27 | 100 | 1000.1 |
| 20260905141854 | 71 | 50 | 4.0 | 12.0 | 0.00 | 0.00 | 0.27 | 100 | 999.8 |
| 20260905141354 | 71 | 39 | 4.0 | 12.0 | 0.00 | 0.00 | 0.27 | 100 | 999.3 |
| 20260905140853 | 71 | 26 | 3.0 | 12.0 | 0.00 | 0.00 | 0.27 | 100 | 999.1 |
| 20260905140352 | 71 | 22 | 4.0 | 12.0 | 0.00 | 0.00 | 0.27 | 100 | 998.9 |
| 20260905135851 | 71 | 303 | 3.0 | 12.0 | 0.00 | 0.00 | 0.27 | 100 | 998.1 |
| 20260905135351 | 71 | 342 | 2.0 | 13.0 | 0.01 | 0.00 | 0.27 | 100 | 997.9 |
| 20260905134850 | 70 | 3 | 5.0 | 13.0 | 0.01 | 0.00 | 0.27 | 100 | 998.0 |
| 20260905134350 | 70 | 309 | 5.0 | 13.0 | 0.01 | 0.00 | 0.27 | 100 | 997.4 |
| 20260905133850 | 70 | 205 | 6.0 | 14.0 | 0.01 | 0.00 | 0.27 | 100 | 995.8 |
| 20260905132833 | 70 | 205 | 5.0 | 11.0 | 0.02 | 0.00 | 0.27 | 100 | 996.3 |
| 20260905132332 | 70 | 259 | 4.0 | 11.0 | 0.02 | 0.00 | 0.27 | 100 | 996.6 |
| 20260905131831 | 70 | 295 | 4.0 | 11.0 | 0.03 | 0.00 | 0.27 | 100 | 997.2 |
| 20260905131330 | 70 | 273 | 3.0 | 11.0 | 0.03 | 0.00 | 0.27 | 100 | 997.5 |